Location: Huisseau
(47.5933°N, 1.4533°E)
Time: 19:14:41
(UTC+00:00)

CENTAUR R/B - Pass Details

Date: 24 November 2025
Orbit: 633 x 1547 km, 63.4° (Epoch: 06 December)

Event Time Altitude Azimuth Distance (km) Brightness Sun altitude
Rises 17:28:31 0° 159° (SSE) 3,178 5.2 -13.1°
Reaches altitude 10° 17:31:50 10° 135° (SE) 2,401 4.3 -13.6°
Enters shadow 17:34:24 14° 106° (ESE) 2,221 3.9 -14.0°
